STARLINK-4162 (53288 NORAD) Tracking and Keplerian Element Data

This shows tracking and keplerian element data for the satellite.

Feedback or suggestion? Click here.




ElementValue
Catalog53288
NameSTARLINK-4162
Epoch Orbit1081
Epoch Day270.25001157
Epoch Year2022
RAAN83.23
Inclination53.2176
Eccentricity0.0001597
Argument of Perigee40.6348
Mean Anonmoly115.3833
Mean Motion15.63076524
Decay Rate-0.01062345
L11 53288U 22086AY 22270.25001157 -.01062345 00000+0 -12574-1 0 9990
L22 53288 53.2176 83.2300 0001597 40.6348 115.3833 15.63076524 10818

Live tracking and technical data element details for STARLINK-4162 (NORAD 53288). STARLINK-4162 can be tracked NOW for your location showing map with azimuth and elevation plus other details from your city location.

Track the satellite on the map from your city or location and see movement details for azimuth, elevation, latitude, longitude, range, height, and movement on the map or in text.







IsCatalogInMostPopularTable: catalog: 53288, numindb: 4
Update: records affected: 1



GetName: 53288 STARLINK-4162

Hit Count: updated at: Fri, 30 Sep 2022 04:04:49 GMT